Worcester, MA

4:53 PM EDT on April 24, 2018 (GMT -0400)
Worcester Regional

Weather History for KORH - October, 2012

Change the Weather History Date:

Monday, October 29, 2012

  Actual Average Record
Temperature  
Mean Temperature 55 °F 46 °F  
Max Temperature 61 °F 54 °F 78 °F (1918)
Min Temperature 48 °F 38 °F 23 °F (1945)
Degree Days  
Heating Degree Days 10 19  
Month to date heating degree days 341 429  
Since 1 July heating degree days 477 622  
Cooling Degree Days 0 0  
Month to date cooling degree days 0 0  
Year to date cooling degree days 674 468  
Growing Degree Days 4 (Base 50)    
Moisture  
Dew Point 53 °F    
Average Humidity 95    
Maximum Humidity 100    
Minimum Humidity 90    
Precipitation  
Precipitation 1.53 in 0.14 in 2.51 in (2017)
Month to date precipitation 3.78 4.40  
Year to date precipitation 37.20 39.69  
Snow  
Snow 0.00 in 0.00 in 11.40 in (2011)
Month to date snowfall 0.0 0.1  
Since 1 July snowfall 0.0 0.1  
Since 1 September snowfall 0.0 0.1  
Snow Depth 0.00 in    
Sea Level Pressure  
Sea Level Pressure 29.42 in    
Wind  
Wind Speed 20 mph (ENE)    
Max Wind Speed 40 mph    
Max Gust Speed 61 mph    
Visibility 3 miles    
Events Rain    
T = Trace of Precipitation, MM = Missing Value Source: NWS Daily Summary

Daily Weather History Graph

Daily Weather History Graph

Search for Another Location

Airport or City:

Astronomy

Oct. 29, 2012 Rise Set
Actual Time 7:17 AM EDT 5:44 PM EDT
Civil Twilight 6:48 AM EDT 6:13 PM EDT
Nautical Twilight 6:15 AM EDT 6:46 PM EDT
Astronomical Twilight 5:42 AM EDT 7:18 PM EDT
Moon 5:33 PM EDT (10/29) 7:05 AM EDT (10/29)
Length of Visible Light 11h 24m
Length of Day
10h 26m
Full, 100% of the Moon is Illuminated
Oct 29
Full
Oct 29
Full
Nov 6
Last Quarter
Nov 13
New
Nov 20
First Quarter

Hourly Weather History & Observations

Time (EDT) Temp. Dew Point Humidity Pressure Visibility Wind Dir Wind Speed Gust Speed Precip Events Conditions
12:50 AM 48.2 °F 46.4 °F 93% 29.73 in 2.0 mi NE 15.0 mph 28.8 mph 0.00 in Rain Light Rain
12:54 AM 48.0 °F 46.9 °F 96% 29.74 in 2.5 mi NE 13.8 mph 25.3 mph 0.00 in Rain Light Rain
1:02 AM 48.2 °F 46.4 °F 93% 29.73 in 4.0 mi NE 17.3 mph 29.9 mph 0.00 in Rain Light Rain
1:18 AM 48.2 °F 46.4 °F 93% 29.72 in 2.5 mi NE 16.1 mph 25.3 mph 0.01 in Rain Light Rain
1:25 AM 48.2 °F 46.4 °F 93% 29.72 in 3.0 mi NE 16.1 mph 27.6 mph 0.01 in Rain Light Rain
1:51 AM 48.2 °F 48.2 °F 100% 29.71 in 1.8 mi NE 15.0 mph 23.0 mph 0.01 in Rain Light Rain
1:54 AM 48.9 °F 48.0 °F 97% 29.72 in 1.5 mi NE 15.0 mph 26.5 mph 0.02 in Rain Light Rain
2:06 AM 48.2 °F 48.2 °F 100% 29.70 in 2.5 mi NE 18.4 mph 25.3 mph 0.00 in Rain Light Rain
2:32 AM 48.2 °F 48.2 °F 100% 29.68 in 1.2 mi NE 16.1 mph 27.6 mph 0.01 in Rain Light Rain
2:54 AM 48.9 °F 48.0 °F 97% 29.69 in 1.2 mi NE 13.8 mph 26.5 mph 0.01 in Rain Light Rain
3:01 AM 48.2 °F 48.2 °F 100% 29.67 in 3.0 mi NE 11.5 mph 26.5 mph 0.01 in Rain Light Rain
3:44 AM 51.8 °F 48.2 °F 88% 29.65 in 10.0 mi ENE 21.9 mph 31.1 mph 0.01 in   Overcast
3:54 AM 51.1 °F 48.9 °F 92% 29.66 in 10.0 mi ENE 19.6 mph 31.1 mph 0.01 in   Overcast
4:19 AM 50.0 °F 48.2 °F 94% 29.64 in 4.0 mi NE 11.5 mph 24.2 mph 0.00 in Rain Light Rain
4:54 AM 51.1 °F 50.0 °F 96% 29.64 in 3.0 mi NE 16.1 mph 31.1 mph 0.02 in Rain Light Rain
5:18 AM 51.8 °F 50.0 °F 94% 29.62 in 2.5 mi NE 15.0 mph 31.1 mph 0.01 in Rain Light Rain
5:27 AM 51.8 °F 50.0 °F 94% 29.61 in 3.0 mi NE 19.6 mph 28.8 mph 0.01 in Rain Light Rain
5:54 AM 51.1 °F 50.0 °F 96% 29.60 in 3.0 mi NE 16.1 mph 32.2 mph 0.02 in Rain Light Rain
6:42 AM 51.8 °F 50.0 °F 94% 29.58 in 2.0 mi NE 17.3 mph 32.2 mph 0.03 in Rain Light Rain
6:54 AM 51.1 °F 50.0 °F 96% 29.58 in 2.0 mi ENE 23.0 mph 35.7 mph 0.04 in Rain Light Rain
7:23 AM 51.8 °F 50.0 °F 94% 29.56 in 1.8 mi NE 17.3 mph 36.8 mph 0.02 in Rain Light Rain
7:35 AM 51.8 °F 50.0 °F 94% 29.56 in 2.0 mi NE 17.3 mph 35.7 mph 0.02 in Rain Light Rain
7:45 AM 51.8 °F 50.0 °F 94% 29.56 in 1.8 mi NE 18.4 mph 31.1 mph 0.03 in Rain Light Rain
7:54 AM 51.1 °F 50.0 °F 96% 29.57 in 2.0 mi NE 17.3 mph 33.4 mph 0.03 in Rain Light Rain
8:54 AM 52.0 °F 51.1 °F 97% 29.55 in 2.0 mi NE 20.7 mph 33.4 mph 0.04 in Rain Light Rain
9:43 AM 51.8 °F 51.8 °F 100% 29.52 in 1.8 mi NE 20.7 mph 31.1 mph 0.03 in Rain Light Rain
9:54 AM 53.1 °F 52.0 °F 96% 29.53 in 2.0 mi ENE 16.1 mph 32.2 mph 0.05 in Rain Light Rain
10:01 AM 53.6 °F 51.8 °F 94% 29.51 in 1.5 mi NE 15.0 mph 27.6 mph 0.01 in Rain Rain
10:41 AM 53.6 °F 51.8 °F 94% 29.48 in 2.5 mi NE 18.4 mph 36.8 mph 0.03 in Rain Light Rain
10:54 AM 54.0 °F 52.0 °F 93% 29.47 in 2.5 mi NE 24.2 mph 34.5 mph 0.04 in Rain Light Rain
11:54 AM 54.0 °F 53.1 °F 97% 29.41 in 2.5 mi NE 19.6 mph 47.2 mph 0.04 in Rain Light Rain
12:54 PM 55.0 °F 54.0 °F 96% 29.34 in 2.0 mi NE 25.3 mph 48.3 mph 0.04 in Rain Rain
1:02 PM 55.4 °F 53.6 °F 94% 29.33 in 1.8 mi NE 25.3 mph 44.9 mph 0.00 in Rain Rain
1:54 PM 55.0 °F 54.0 °F 96% 29.28 in 1.2 mi NE 21.9 mph 44.9 mph 0.20 in Rain Heavy Rain
2:18 PM 55.4 °F 53.6 °F 94% 29.24 in 1.5 mi ENE 20.7 mph 48.3 mph 0.10 in Rain Heavy Rain
2:54 PM 55.9 °F 54.0 °F 93% 29.21 in 1.8 mi ENE 27.6 mph 46.0 mph 0.22 in Rain Rain
3:54 PM 55.4 °F 55.4 °F 100% 29.16 in 1.2 mi ENE 36.8 mph 54.1 mph N/A Rain Heavy Rain
4:30 PM 57.2 °F 55.4 °F 94% 29.14 in 2.5 mi ENE 28.8 mph 54.1 mph 0.06 in Rain Rain
4:40 PM 57.2 °F 55.4 °F 94% 29.13 in 1.5 mi ENE 31.1 mph 47.2 mph 0.08 in Rain Rain
4:54 PM 57.9 °F 57.0 °F 97% 29.13 in 2.0 mi ENE 34.5 mph 54.1 mph 0.12 in Rain Rain
5:03 PM 57.2 °F 57.2 °F 100% 29.14 in 1.5 mi ENE 32.2 mph 54.1 mph 0.00 in Rain Rain
5:13 PM 57.2 °F 57.2 °F 100% 29.14 in 2.5 mi ENE 39.1 mph 55.2 mph 0.02 in Rain Rain
5:32 PM 59.0 °F 57.2 °F 94% 29.14 in 3.0 mi ENE 40.3 mph 61.0 mph 0.03 in Rain Light Rain
5:54 PM 59.0 °F 57.9 °F 96% 29.15 in 10.0 mi East 23.0 mph 46.0 mph 0.06 in Rain Light Rain
6:46 PM 59.0 °F 59.0 °F 100% 29.17 in 4.0 mi East 26.5 mph 41.4 mph 0.02 in Rain Rain
6:54 PM 59.0 °F 59.0 °F 100% 29.18 in 2.5 mi East 19.6 mph 39.1 mph 0.04 in Rain Rain
7:08 PM 60.8 °F 59.0 °F 94% 29.18 in 4.0 mi East 24.2 mph 44.9 mph 0.03 in Rain Light Rain
7:45 PM 60.8 °F 59.0 °F 94% 29.19 in 2.0 mi East 24.2 mph 36.8 mph 0.05 in Rain Light Rain
7:54 PM 60.1 °F 59.0 °F 96% 29.19 in 1.5 mi East 20.7 mph 33.4 mph 0.06 in Rain Light Rain
7:59 PM 60.8 °F 59.0 °F 94% 29.18 in 3.0 mi East 23.0 mph 34.5 mph N/A   Overcast
8:26 PM 60.8 °F 59.0 °F 94% 29.19 in 4.0 mi East 20.7 mph 40.3 mph 0.03 in Rain Heavy Rain
8:37 PM 60.8 °F 59.0 °F 94% 29.19 in 2.5 mi East 16.1 mph 33.4 mph 0.15 in Rain Heavy Rain
8:47 PM 60.8 °F 59.0 °F 94% 29.20 in 5.0 mi East 20.7 mph 34.5 mph 0.19 in Rain Heavy Rain
8:54 PM 61.0 °F 59.0 °F 93% 29.20 in 7.0 mi East 15.0 mph 32.2 mph 0.21 in Rain Rain
9:54 PM 60.1 °F 57.9 °F 93% 29.22 in 7.0 mi East 13.8 mph 27.6 mph 0.07 in Rain Light Rain
10:54 PM 60.1 °F 59.0 °F 96% 29.24 in 7.0 mi ESE 15.0 mph 23.0 mph 0.02 in Rain Light Rain
11:54 PM 61.0 °F 59.0 °F 93% 29.26 in 10.0 mi ESE 13.8 mph 28.8 mph 0.03 in   Overcast
11:59 PM 60.8 °F 59.0 °F 94% 29.26 in 10.0 mi ESE 15.0 mph 24.2 mph N/A   Overcast